Location: Ipswich
(52.0579°N, 1.1528°E)
Time: 10:11:11
(UTC+01:00)

ISS - Pass Details

Date: 09 May 2026
Orbit: 414 x 424 km, 51.6° (Epoch: 8 May)

Event Time Altitude Azimuth Distance (km) Brightness Sun altitude
Rises 23:51:58 0° 263° (W) 2,352 0.2 -19.2°
Reaches altitude 10° 23:54:03 10° 262° (W) 1,491 -0.9 -19.3°
Maximum altitude 23:57:24 83° 175° (S) 424 -3.9 -19.4°
Enters shadow 23:57:25 83° 167° (SSE) 424 -3.9 -19.4°
